When you browse on this site, cookies collect data to enhance your experience and personalize the content and advertising you see.
Visit our Privacy Policy to learn more. By continuing to use the site, you agree to this use of cookies and data.
  • în România
  • Lista ţărilor
  • Pe 7 zile
  • Temperatura apei
  • Meteo pe hartă
  • Widget-uri
  • user-avatar
    Intrare

    Meteo pe oră la Vatican

    Astăzi, 27 Mai, Miercuri

    Timp Temperatura Precipitaţii Vânt Presiune Umiditate
    00:00 +19°C° 0 mm 6 m/s 767 mmHg 50%
    01:00 +17°C° 0 mm 6 m/s 767 mmHg 48%
    02:00 +16°C° 0 mm 6 m/s 767 mmHg 50%
    03:00 +16°C° 0 mm 5 m/s 767 mmHg 51%
    04:00 +15°C° 0 mm 5 m/s 767 mmHg 52%
    05:00 +16°C° 0 mm 5 m/s 767 mmHg 51%
    06:00 +16°C° 0 mm 5 m/s 768 mmHg 50%
    07:00 +17°C° 0 mm 5 m/s 768 mmHg 49%
    08:00 +19°C° 0 mm 4 m/s 768 mmHg 44%
    09:00 +21°C° 0 mm 3 m/s 768 mmHg 39%
    10:00 +24°C° 0 mm 3 m/s 768 mmHg 33%
    11:00 +24°C° 0 mm 3 m/s 768 mmHg 34%
    12:00 +25°C° 0 mm 3 m/s 768 mmHg 35%
    13:00 +25°C° 0 mm 3 m/s 768 mmHg 36%
    14:00 +25°C° 0 mm 3 m/s 768 mmHg 37%
    15:00 +25°C° 0 mm 4 m/s 768 mmHg 38%
    16:00 +23°C° 0 mm 4 m/s 767 mmHg 40%
    17:00 +23°C° 0 mm 4 m/s 767 mmHg 43%
    18:00 +22°C° 0 mm 3 m/s 767 mmHg 46%
    19:00 +22°C° 0 mm 3 m/s 767 mmHg 49%
    20:00 +21°C° 0 mm 3 m/s 767 mmHg 50%
    21:00 +20°C° 0 mm 3 m/s 768 mmHg 50%
    22:00 +19°C° 0 mm 3 m/s 768 mmHg 51%
    23:00 +19°C° 0 mm 3 m/s 768 mmHg 52%

    Mâine, 28 Mai, Joi

    Timp Temperatura Precipitaţii Vânt Presiune Umiditate
    00:00 +18°C° 0 mm 4 m/s 768 mmHg 52%
    01:00 +18°C° 0 mm 4 m/s 768 mmHg 53%
    02:00 +17°C° 0 mm 4 m/s 768 mmHg 53%
    03:00 +17°C° 0 mm 4 m/s 767 mmHg 53%
    04:00 +15°C° 0 mm 4 m/s 767 mmHg 53%
    05:00 +17°C° 0 mm 4 m/s 767 mmHg 51%
    06:00 +18°C° 0 mm 4 m/s 767 mmHg 48%
    07:00 +19°C° 0 mm 4 m/s 766 mmHg 46%
    08:00 +20°C° 0 mm 4 m/s 766 mmHg 42%
    09:00 +22°C° 0 mm 3 m/s 766 mmHg 39%
    10:00 +25°C° 0 mm 3 m/s 766 mmHg 35%
    11:00 +25°C° 0 mm 3 m/s 766 mmHg 38%
    12:00 +25°C° 0 mm 3 m/s 766 mmHg 40%
    13:00 +25°C° 0 mm 3 m/s 765 mmHg 42%
    14:00 +25°C° 0 mm 3 m/s 765 mmHg 44%
    15:00 +25°C° 0 mm 3 m/s 764 mmHg 45%
    16:00 +25°C° 0 mm 3 m/s 764 mmHg 46%
    17:00 +24°C° 0 mm 3 m/s 764 mmHg 49%
    18:00 +22°C° 0 mm 3 m/s 764 mmHg 53%
    19:00 +21°C° 0 mm 3 m/s 763 mmHg 56%
    20:00 +20°C° 0 mm 2 m/s 764 mmHg 56%
    21:00 +20°C° 0 mm 2 m/s 764 mmHg 57%
    22:00 +19°C° 0 mm 2 m/s 764 mmHg 57%
    23:00 +19°C° 0 mm 2 m/s 764 mmHg 57%

    Poimâine, 29 Mai, Vineri

    Timp Temperatura Precipitaţii Vânt Presiune Umiditate
    00:00 +20°C° 0 mm 1 m/s 763 mmHg 57%
    01:00 +19°C° 0 mm 1 m/s 763 mmHg 57%
    02:00 +19°C° 0 mm 1 m/s 763 mmHg 58%
    03:00 +18°C° 0 mm 1 m/s 763 mmHg 59%
    04:00 +18°C° 0 mm 1 m/s 762 mmHg 60%
    05:00 +19°C° 0 mm 1 m/s 762 mmHg 57%
    06:00 +20°C° 0 mm 1 m/s 762 mmHg 55%
    07:00 +21°C° 0 mm 1 m/s 762 mmHg 52%
    08:00 +22°C° 0 mm 1 m/s 762 mmHg 51%
    09:00 +23°C° 0 mm 1 m/s 762 mmHg 49%
    10:00 +24°C° 0 mm 1 m/s 762 mmHg 47%
    11:00 +24°C° 0 mm 2 m/s 761 mmHg 46%
    12:00 +25°C° 0 mm 2 m/s 761 mmHg 44%
    13:00 +25°C° 0 mm 3 m/s 761 mmHg 42%
    14:00 +25°C° 0 mm 3 m/s 761 mmHg 43%
    15:00 +24°C° 0 mm 3 m/s 760 mmHg 44%
    16:00 +24°C° 0 mm 3 m/s 760 mmHg 46%
    17:00 +22°C° 0 mm 3 m/s 760 mmHg 49%
    18:00 +21°C° 0 mm 3 m/s 760 mmHg 53%
    19:00 +20°C° 0 mm 3 m/s 760 mmHg 57%
    20:00 +20°C° 0 mm 3 m/s 760 mmHg 58%
    21:00 +19°C° 0 mm 4 m/s 760 mmHg 58%
    22:00 +19°C° 0 mm 4 m/s 760 mmHg 59%
    23:00 +18°C° 0 mm 3 m/s 760 mmHg 60%

    30 Mai, Sâmbătă

    Timp Temperatura Precipitaţii Vânt Presiune Umiditate
    00:00 +18°C° 0 mm 3 m/s 760 mmHg 61%
    01:00 +18°C° 0 mm 2 m/s 760 mmHg 62%
    02:00 +17°C° 0 mm 2 m/s 760 mmHg 65%
    03:00 +17°C° 0 mm 2 m/s 760 mmHg 67%
    04:00 +16°C° 0 mm 3 m/s 760 mmHg 70%
    05:00 +17°C° 0 mm 3 m/s 760 mmHg 67%
    06:00 +18°C° 0 mm 3 m/s 760 mmHg 65%
    07:00 +18°C° 0 mm 3 m/s 759 mmHg 62%
    08:00 +20°C° 0.1 mm 3 m/s 760 mmHg 59%
    09:00 +21°C° 0.1 mm 3 m/s 760 mmHg 55%
    10:00 +24°C° 0.1 mm 3 m/s 760 mmHg 51%
    11:00 +24°C° 0.1 mm 3 m/s 760 mmHg 52%
    12:00 +24°C° 0.1 mm 3 m/s 759 mmHg 52%
    13:00 +24°C° 0.1 mm 3 m/s 759 mmHg 53%
    14:00 +24°C° 0.1 mm 3 m/s 759 mmHg 52%
    15:00 +22°C° 0.1 mm 3 m/s 759 mmHg 52%
    16:00 +22°C° 0.1 mm 3 m/s 759 mmHg 51%
    17:00 +22°C° 0 mm 3 m/s 759 mmHg 53%
    18:00 +21°C° 0 mm 3 m/s 759 mmHg 55%
    19:00 +21°C° 0 mm 2 m/s 759 mmHg 57%
    20:00 +20°C° 0 mm 2 m/s 759 mmHg 59%
    21:00 +19°C° 0 mm 2 m/s 760 mmHg 62%
    22:00 +20°C° 0 mm 1 m/s 760 mmHg 64%
    23:00 +19°C° 0 mm 1 m/s 760 mmHg 66%

    31 Mai, Duminică

    Timp Temperatura Precipitaţii Vânt Presiune Umiditate
    00:00 +19°C° 0 mm 1 m/s 760 mmHg 67%
    01:00 +18°C° 0 mm 2 m/s 760 mmHg 69%
    02:00 +17°C° 0 mm 2 m/s 760 mmHg 70%
    03:00 +17°C° 0 mm 2 m/s 760 mmHg 72%
    04:00 +17°C° 0 mm 2 m/s 759 mmHg 73%
    05:00 +17°C° 0 mm 2 m/s 760 mmHg 70%
    06:00 +19°C° 0 mm 1 m/s 760 mmHg 67%
    07:00 +20°C° 0 mm 1 m/s 760 mmHg 65%
    08:00 +21°C° 0 mm 1 m/s 760 mmHg 60%
    09:00 +23°C° 0 mm 1 m/s 760 mmHg 56%
    10:00 +24°C° 0 mm 1 m/s 760 mmHg 52%
    11:00 +24°C° 0 mm 3 m/s 760 mmHg 52%
    12:00 +25°C° 0 mm 4 m/s 760 mmHg 53%
    13:00 +25°C° 0 mm 5 m/s 760 mmHg 54%
    14:00 +25°C° 0 mm 5 m/s 759 mmHg 54%
    15:00 +25°C° 0 mm 5 m/s 759 mmHg 55%
    16:00 +23°C° 0 mm 6 m/s 759 mmHg 56%
    17:00 +23°C° 0 mm 5 m/s 759 mmHg 58%
    18:00 +22°C° 0 mm 5 m/s 759 mmHg 60%
    19:00 +22°C° 0 mm 5 m/s 759 mmHg 62%
    20:00 +21°C° 0 mm 5 m/s 759 mmHg 64%
    21:00 +20°C° 0 mm 4 m/s 760 mmHg 66%
    22:00 +20°C° 0 mm 4 m/s 760 mmHg 69%
    23:00 +19°C° 0 mm 4 m/s 760 mmHg 69%

    1 Iunie, Luni

    Timp Temperatura Precipitaţii Vânt Presiune Umiditate
    00:00 +19°C° 0 mm 4 m/s 760 mmHg 68%
    01:00 +19°C° 0 mm 4 m/s 759 mmHg 68%
    02:00 +18°C° 0 mm 4 m/s 759 mmHg 69%
    03:00 +18°C° 0 mm 4 m/s 759 mmHg 70%
    04:00 +17°C° 0 mm 3 m/s 759 mmHg 71%
    05:00 +18°C° 0 mm 3 m/s 759 mmHg 68%
    06:00 +19°C° 0 mm 3 m/s 759 mmHg 66%
    07:00 +20°C° 0 mm 2 m/s 759 mmHg 63%
    08:00 +21°C° 0 mm 2 m/s 759 mmHg 58%
    09:00 +24°C° 0 mm 3 m/s 759 mmHg 53%
    10:00 +25°C° 0 mm 3 m/s 759 mmHg 47%
    11:00 +25°C° 0 mm 3 m/s 759 mmHg 47%
    12:00 +26°C° 0 mm 4 m/s 759 mmHg 47%
    13:00 +26°C° 0 mm 5 m/s 758 mmHg 47%
    14:00 +26°C° 0 mm 6 m/s 758 mmHg 50%
    15:00 +26°C° 0 mm 6 m/s 758 mmHg 52%
    16:00 +24°C° 0 mm 7 m/s 758 mmHg 54%
    17:00 +24°C° 0 mm 6 m/s 758 mmHg 58%
    18:00 +23°C° 0 mm 6 m/s 758 mmHg 62%
    19:00 +22°C° 0 mm 6 m/s 758 mmHg 66%
    20:00 +22°C° 0 mm 5 m/s 758 mmHg 69%
    21:00 +21°C° 0 mm 5 m/s 758 mmHg 71%
    22:00 +21°C° 0 mm 5 m/s 759 mmHg 74%
    23:00 +20°C° 0 mm 5 m/s 758 mmHg 74%
    Arată mai mult